Location: Newark
(46.4658°N, 0.0697°E)
Time: 19:32:03
(UTC+00:00)

Envisat - Visible Passes

Search period start: 18 October 2019 00:00
Search period end: 28 October 2019 00:00
Orbit: 764 x 766 km, 98.1° (Epoch: 18 October)

Date Brightness Start Highest point End Pass type
(mag) Time Alt. Az. Time Alt. Az. Time Alt. Az.
18 Oct 6.1 05:50:14 10° NE 05:53:48 19° E 05:57:22 10° SE visible
18 Oct 4.7 18:45:57 10° SSW 18:50:35 35° W 18:55:14 10° NNW visible
19 Oct 3.3 18:08:36 10° S 18:13:40 74° WSW 18:18:46 10° NNW visible
20 Oct 3.1 17:32:02 10° SSE 17:36:57 54° ENE 17:41:55 10° N visible
20 Oct 5.5 19:12:29 10° SW 19:16:18 21° W 19:20:09 10° NW visible
21 Oct 6.2 05:39:29 10° NE 05:42:24 15° E 05:45:18 10° ESE visible
21 Oct 4.2 18:34:25 10° S 18:39:15 44° W 18:44:07 10° NNW visible
22 Oct 3.0 17:57:19 10° SSE 18:02:24 89° E 18:07:31 10° NNW visible
22 Oct 6.1 19:40:04 10° WSW 19:42:08 12° W 19:44:13 10° WNW visible
23 Oct 5.2 19:00:43 10° SSW 19:04:56 26° W 19:09:11 10° NW visible
24 Oct 6.5 05:29:05 10° ENE 05:31:00 12° E 05:32:53 10° ESE visible
24 Oct 3.8 18:22:58 10° S 18:27:56 54° W 18:32:57 10° NNW visible
25 Oct 2.9 17:46:06 10° SSE 17:51:09 73° ENE 17:56:14 10° N visible
25 Oct 5.9 19:27:43 10° SW 19:30:43 16° W 19:33:45 10° NW visible
26 Oct 6.0 05:53:03 10° NE 05:56:50 21° E 06:00:35 10° SE visible
26 Oct 4.8 18:49:04 10° SSW 18:53:35 32° W 18:58:08 10° NNW visible
27 Oct 3.4 18:11:36 10° S 18:16:39 68° WSW 18:21:44 10° NNW visible
